Torna al catalogo

FENGYUN 1C DEB

AttivoPO
NORAD 31427·DEBRIS·🇨🇳 China

Lanciato May 10, 1999 da Taiyuan Satellite Launch Center

Loading…

Prossimi Passaggi (prossime 24 ore)

TLE

AggiornatoSource: Space-Track

Epoca: Sep 13, 2026, 07:20 UTC

1 31427U 99025BTP 26256.30623067  .00007397  00000-0  13871-2 0  9998
2 31427  98.6850  23.9589 0027899 248.6564 111.1659 14.64821985  8944

Traccia FENGYUN 1C DEB in tempo reale con AllMySat

Download on the App Store